Weather History for Northway, AK

Change the Weather History Date:

Tuesday, October 22, 2013

  Actual Average Record
Temperature  
Mean Temperature 25 °F -  
Max Temperature 37 °F 23 °F 40 °F (1964)
Min Temperature 14 °F 9 °F -29 °F (1958)
Degree Days  
Heating Degree Days 40    
Moisture  
Dew Point 16 °F    
Average Humidity 79    
Maximum Humidity 92    
Minimum Humidity 52    
Precipitation  
Precipitation 0.00 in - - ()
Sea Level Pressure  
Sea Level Pressure 30.25 in    
Wind  
Wind Speed 1 mph (SE)    
Max Wind Speed 6 mph    
Max Gust Speed -    
Visibility 10 miles    
Events      
Averages and records for this station are not official NWS values.
T = Trace of Precipitation, MM = Missing Value Source: NWS Daily Summary

Daily Weather History Graph

Daily Weather History Graph

Search for Another Location

Airport:

Trip Planner

Search our weather history database for the weather conditions in past years. The results will help you decide how hot, cold, wet, or windy it might be!

Date:

Astronomy

Oct. 22, 2013 Rise Set
Actual Time 8:36 AM AKDT 5:46 PM AKDT
Civil Twilight 7:47 AM AKDT 6:34 PM AKDT
Nautical Twilight 6:54 AM AKDT 7:28 PM AKDT
Astronomical Twilight 6:01 AM AKDT 8:21 PM AKDT
Moon 7:36 PM AKDT (10/22) 1:10 PM AKDT (10/22)
Length of Visible Light 10h 47m
Length of Day
9h 10m
Waning Gibbous, 86% of the Moon is Illuminated
Oct 22
Waning Gibbous
Oct 26
Last Quarter
Nov 3
New
Nov 9
First Quarter
Nov 17
Full

Hourly Weather History & Observations

Time (AKDT) Temp. Windchill Dew Point Humidity Pressure Visibility Wind Dir Wind Speed Gust Speed Precip Events Conditions
12:53 AM 21.0 °F - 17.1 °F 85% 30.21 in 10.0 mi Calm Calm - N/A   Partly Cloudy
1:53 AM 17.1 °F - 14.0 °F 88% 30.23 in 10.0 mi Calm Calm - N/A   Scattered Clouds
2:53 AM 17.1 °F 11.7 °F 15.1 °F 92% 30.23 in 10.0 mi South 3.5 mph - N/A   Scattered Clouds
3:53 AM 18.0 °F - 16.0 °F 92% 30.24 in 10.0 mi Calm Calm - N/A   Scattered Clouds
4:53 AM 15.1 °F - 12.0 °F 88% 30.24 in 10.0 mi Calm Calm - N/A   Scattered Clouds
5:53 AM 16.0 °F - 12.0 °F 84% 30.24 in 10.0 mi Calm Calm - N/A   Scattered Clouds
6:53 AM 16.0 °F - 12.9 °F 88% 30.25 in 10.0 mi Calm Calm - N/A   Scattered Clouds
7:53 AM 15.1 °F 9.4 °F 10.9 °F 84% 30.27 in 10.0 mi East 3.5 mph - N/A   Scattered Clouds
8:53 AM 14.0 °F - 12.0 °F 92% 30.28 in 10.0 mi Calm Calm - N/A   Scattered Clouds
9:53 AM 18.0 °F 12.7 °F 16.0 °F 92% 30.28 in 10.0 mi East 3.5 mph - N/A   Scattered Clouds
10:53 AM 24.1 °F - 19.9 °F 84% 30.28 in 10.0 mi Calm Calm - N/A   Scattered Clouds
11:53 AM 28.9 °F - 21.9 °F 75% 30.27 in 10.0 mi Calm Calm - N/A   Scattered Clouds
12:53 PM 32.0 °F 28.7 °F 21.9 °F 66% 30.27 in 10.0 mi SE 3.5 mph - N/A   Partly Cloudy
1:53 PM 35.1 °F 30.1 °F 21.0 °F 57% 30.27 in 10.0 mi SE 5.8 mph - N/A   Partly Cloudy
2:53 PM 36.0 °F 33.3 °F 21.0 °F 55% 30.26 in 10.0 mi SE 3.5 mph - N/A   Partly Cloudy
3:53 PM 36.0 °F 33.3 °F 19.9 °F 52% 30.26 in 10.0 mi South 3.5 mph - N/A   Scattered Clouds
4:53 PM 35.1 °F - 21.0 °F 57% 30.26 in 10.0 mi Calm Calm - N/A   Scattered Clouds
5:53 PM 28.0 °F - 19.0 °F 69% 30.26 in 10.0 mi Calm Calm - N/A   Scattered Clouds
6:53 PM 24.1 °F - 19.0 °F 81% 30.26 in 10.0 mi Calm Calm - N/A   Scattered Clouds
7:53 PM 21.9 °F - 18.0 °F 85% 30.26 in 10.0 mi Calm Calm - N/A   Partly Cloudy
8:53 PM 19.0 °F - 15.1 °F 85% 30.26 in 10.0 mi Calm Calm - N/A   Partly Cloudy
9:53 PM 17.1 °F - 12.9 °F 84% 30.25 in 10.0 mi Calm Calm - N/A   Partly Cloudy
10:53 PM 16.0 °F - 12.9 °F 88% 30.23 in 10.0 mi Calm Calm - N/A   Partly Cloudy
11:53 PM 14.0 °F - 10.0 °F 84% 30.21 in 10.0 mi Calm Calm - N/A   Partly Cloudy